Time,TemperatureF,DewpointF,PressureIn,WindDirection,WindDirectionDegrees,WindSpeedMPH,WindSpeedGustMPH,Humidity,HourlyPrecipIn,Conditions,Clouds,dailyrainin,SoftwareType,DateUTC
2013-07-10 00:01:00,69.7,69.7,30.21,North,5,0.0,0.0,100,0.00,,,0.00,Wunderground v.1.15,2013-07-10 04:01:00,
2013-07-10 00:06:00,69.7,69.7,30.21,North,5,0.0,0.0,100,0.00,,,0.00,Wunderground v.1.15,2013-07-10 04:06:00,
2013-07-10 00:11:00,69.7,69.7,30.21,North,5,0.0,0.0,100,0.00,,,0.00,Wunderground v.1.15,2013-07-10 04:11:00,
2013-07-10 00:16:00,69.7,69.7,30.21,North,5,0.0,1.0,100,0.00,,,0.00,Wunderground v.1.15,2013-07-10 04:16:00,
2013-07-10 00:21:00,69.7,69.7,30.22,North,5,0.0,0.0,100,0.00,,,0.00,Wunderground v.1.15,2013-07-10 04:21:00,
2013-07-10 00:26:00,69.7,69.7,30.21,North,5,0.0,0.0,100,0.00,,,0.00,Wunderground v.1.15,2013-07-10 04:26:00,
2013-07-10 00:31:00,69.6,69.6,30.21,East,87,0.0,0.0,100,0.00,,,0.00,Wunderground v.1.15,2013-07-10 04:31:00,
2013-07-10 00:36:00,69.6,69.6,30.21,East,87,0.0,0.0,100,0.00,,,0.00,Wunderground v.1.15,2013-07-10 04:36:00,
2013-07-10 00:41:00,69.6,69.6,30.20,East,87,0.0,0.0,100,0.00,,,0.00,Wunderground v.1.15,2013-07-10 04:41:00,
2013-07-10 00:46:00,69.5,69.5,30.20,East,87,0.0,2.0,100,0.00,,,0.00,Wunderground v.1.15,2013-07-10 04:46:00,
2013-07-10 00:51:00,69.4,69.4,30.20,East,87,2.0,2.0,100,0.00,,,0.00,Wunderground v.1.15,2013-07-10 04:51:00,
2013-07-10 00:56:00,69.4,69.4,30.20,East,87,0.0,2.0,100,0.00,,,0.00,Wunderground v.1.15,2013-07-10 04:56:00,
2013-07-10 01:01:00,69.3,69.3,30.20,East,87,0.0,1.0,100,0.00,,,0.00,Wunderground v.1.15,2013-07-10 05:01:00,
2013-07-10 01:06:00,69.1,69.1,30.19,East,87,0.0,1.0,100,0.00,,,0.00,Wunderground v.1.15,2013-07-10 05:06:00,
2013-07-10 01:11:00,68.9,68.9,30.19,East,87,0.0,0.0,100,0.00,,,0.00,Wunderground v.1.15,2013-07-10 05:11:00,
2013-07-10 01:16:00,68.8,68.8,30.19,East,87,0.0,0.0,100,0.00,,,0.00,Wunderground v.1.15,2013-07-10 05:16:00,
2013-07-10 01:21:00,68.7,68.7,30.19,East,87,0.0,0.0,100,0.00,,,0.00,Wunderground v.1.15,2013-07-10 05:21:00,
2013-07-10 01:26:00,68.7,68.7,30.18,East,87,0.0,0.0,100,0.00,,,0.00,Wunderground v.1.15,2013-07-10 05:26:00,
2013-07-10 01:31:00,68.6,68.6,30.18,East,87,0.0,0.0,100,0.00,,,0.00,Wunderground v.1.15,2013-07-10 05:31:00,
2013-07-10 01:36:00,68.7,68.7,30.17,East,87,0.0,0.0,100,0.00,,,0.00,Wunderground v.1.15,2013-07-10 05:36:00,
2013-07-10 01:41:00,68.7,68.7,30.17,East,87,0.0,0.0,100,0.00,,,0.00,Wunderground v.1.15,2013-07-10 05:41:00,
2013-07-10 01:46:00,68.7,68.7,30.17,East,87,0.0,0.0,100,0.00,,,0.00,Wunderground v.1.15,2013-07-10 05:46:00,
2013-07-10 01:51:00,68.7,68.7,30.17,East,87,0.0,0.0,100,0.00,,,0.00,Wunderground v.1.15,2013-07-10 05:51:00,
2013-07-10 01:56:00,68.7,68.7,30.17,East,87,0.0,0.0,100,0.00,,,0.00,Wunderground v.1.15,2013-07-10 05:56:00,
2013-07-10 02:01:00,68.7,68.7,30.17,East,87,0.0,0.0,100,0.00,,,0.00,Wunderground v.1.15,2013-07-10 06:01:00,
2013-07-10 02:06:00,68.6,68.6,30.16,East,87,0.0,0.0,100,0.00,,,0.00,Wunderground v.1.15,2013-07-10 06:06:00,
2013-07-10 02:11:00,68.6,68.6,30.16,East,87,0.0,0.0,100,0.00,,,0.00,Wunderground v.1.15,2013-07-10 06:11:00,
2013-07-10 02:16:00,68.5,68.5,30.16,East,87,0.0,0.0,100,0.00,,,0.00,Wunderground v.1.15,2013-07-10 06:16:00,
2013-07-10 02:21:00,68.4,68.4,30.15,East,87,0.0,0.0,100,0.00,,,0.00,Wunderground v.1.15,2013-07-10 06:21:00,
2013-07-10 02:26:00,68.3,68.3,30.16,East,87,0.0,0.0,100,0.00,,,0.00,Wunderground v.1.15,2013-07-10 06:26:00,
2013-07-10 02:31:00,68.2,68.2,30.15,East,87,0.0,0.0,100,0.00,,,0.00,Wunderground v.1.15,2013-07-10 06:31:00,
2013-07-10 02:36:00,68.1,68.1,30.15,East,87,0.0,0.0,100,0.00,,,0.00,Wunderground v.1.15,2013-07-10 06:36:00,
2013-07-10 02:41:00,68.1,68.1,30.15,East,87,0.0,0.0,100,0.00,,,0.00,Wunderground v.1.15,2013-07-10 06:41:00,
2013-07-10 02:46:00,68.0,68.0,30.15,East,87,0.0,0.0,100,0.00,,,0.00,Wunderground v.1.15,2013-07-10 06:46:00,
2013-07-10 02:51:00,68.0,68.0,30.14,East,87,0.0,0.0,100,0.00,,,0.00,Wunderground v.1.15,2013-07-10 06:51:00,
2013-07-10 02:56:00,67.9,67.9,30.14,East,87,0.0,0.0,100,0.00,,,0.00,Wunderground v.1.15,2013-07-10 06:56:00,
2013-07-10 03:01:00,67.8,67.8,30.14,East,87,0.0,0.0,100,0.00,,,0.00,Wunderground v.1.15,2013-07-10 07:01:00,
2013-07-10 03:06:00,67.7,67.7,30.14,East,87,0.0,0.0,100,0.00,,,0.00,Wunderground v.1.15,2013-07-10 07:06:00,
2013-07-10 03:11:00,67.7,67.7,30.14,East,87,0.0,0.0,100,0.00,,,0.00,Wunderground v.1.15,2013-07-10 07:11:00,
2013-07-10 03:16:00,67.6,67.6,30.13,East,87,0.0,0.0,100,0.00,,,0.00,Wunderground v.1.15,2013-07-10 07:16:00,
2013-07-10 03:21:00,67.6,67.6,30.13,East,87,0.0,0.0,100,0.00,,,0.00,Wunderground v.1.15,2013-07-10 07:21:00,
2013-07-10 03:26:00,67.5,67.5,30.13,East,87,0.0,0.0,100,0.00,,,0.00,Wunderground v.1.15,2013-07-10 07:26:00,
2013-07-10 03:31:00,67.4,67.4,30.13,East,87,0.0,0.0,100,0.00,,,0.00,Wunderground v.1.15,2013-07-10 07:31:00,
2013-07-10 03:36:00,67.4,67.4,30.13,East,87,0.0,0.0,100,0.00,,,0.00,Wunderground v.1.15,2013-07-10 07:36:00,
2013-07-10 03:41:00,67.3,67.3,30.13,East,87,0.0,1.0,100,0.00,,,0.00,Wunderground v.1.15,2013-07-10 07:41:00,
2013-07-10 03:46:00,67.2,67.2,30.13,East,87,0.0,1.0,100,0.00,,,0.00,Wunderground v.1.15,2013-07-10 07:46:00,
2013-07-10 03:51:00,67.2,67.2,30.13,East,87,0.0,0.0,100,0.00,,,0.00,Wunderground v.1.15,2013-07-10 07:51:00,
2013-07-10 03:56:00,67.1,67.1,30.14,East,87,0.0,0.0,100,0.00,,,0.00,Wunderground v.1.15,2013-07-10 07:56:00,
2013-07-10 04:01:00,67.1,67.1,30.14,East,87,0.0,0.0,100,0.00,,,0.00,Wunderground v.1.15,2013-07-10 08:01:00,
2013-07-10 04:06:00,67.1,67.1,30.14,East,87,0.0,0.0,100,0.00,,,0.00,Wunderground v.1.15,2013-07-10 08:06:00,
2013-07-10 04:11:00,67.0,67.0,30.14,East,87,0.0,0.0,100,0.00,,,0.00,Wunderground v.1.15,2013-07-10 08:11:00,
2013-07-10 04:16:00,67.0,67.0,30.14,East,87,0.0,0.0,100,0.00,,,0.00,Wunderground v.1.15,2013-07-10 08:16:00,
2013-07-10 04:21:00,67.0,67.0,30.14,East,87,0.0,0.0,100,0.00,,,0.00,Wunderground v.1.15,2013-07-10 08:21:00,
2013-07-10 04:26:00,67.0,67.0,30.14,East,87,0.0,0.0,100,0.00,,,0.00,Wunderground v.1.15,2013-07-10 08:26:00,
2013-07-10 04:31:00,66.9,66.9,30.14,East,87,0.0,0.0,100,0.00,,,0.00,Wunderground v.1.15,2013-07-10 08:31:00,
2013-07-10 04:36:00,66.8,66.8,30.14,East,87,0.0,0.0,100,0.00,,,0.00,Wunderground v.1.15,2013-07-10 08:36:00,
2013-07-10 04:41:00,66.7,66.7,30.14,East,87,1.0,1.0,100,0.00,,,0.00,Wunderground v.1.15,2013-07-10 08:41:00,
2013-07-10 04:46:00,66.6,66.6,30.14,East,87,0.0,1.0,100,0.00,,,0.00,Wunderground v.1.15,2013-07-10 08:46:00,
2013-07-10 04:51:00,66.5,66.5,30.15,East,87,0.0,0.0,100,0.00,,,0.00,Wunderground v.1.15,2013-07-10 08:51:00,
2013-07-10 04:56:00,66.5,66.5,30.15,East,87,0.0,0.0,100,0.00,,,0.00,Wunderground v.1.15,2013-07-10 08:56:00,
2013-07-10 05:01:00,66.4,66.4,30.15,East,87,0.0,0.0,100,0.00,,,0.00,Wunderground v.1.15,2013-07-10 09:01:00,
2013-07-10 05:06:00,66.4,66.4,30.15,East,87,0.0,0.0,100,0.00,,,0.00,Wunderground v.1.15,2013-07-10 09:06:00,
2013-07-10 05:11:00,66.3,66.3,30.16,East,87,0.0,0.0,100,0.00,,,0.00,Wunderground v.1.15,2013-07-10 09:11:00,
2013-07-10 05:16:00,66.3,66.3,30.16,East,87,0.0,0.0,100,0.00,,,0.00,Wunderground v.1.15,2013-07-10 09:16:00,
2013-07-10 05:21:00,66.3,66.3,30.16,East,87,0.0,0.0,100,0.00,,,0.00,Wunderground v.1.15,2013-07-10 09:21:00,
2013-07-10 05:26:00,66.3,66.3,30.16,East,87,0.0,0.0,100,0.00,,,0.00,Wunderground v.1.15,2013-07-10 09:26:00,
2013-07-10 05:31:00,66.4,66.4,30.16,East,87,0.0,0.0,100,0.00,,,0.00,Wunderground v.1.15,2013-07-10 09:31:00,
2013-07-10 05:36:00,66.4,66.4,30.16,East,87,0.0,0.0,100,0.00,,,0.00,Wunderground v.1.15,2013-07-10 09:36:00,
2013-07-10 05:41:00,66.5,66.5,30.16,East,87,0.0,0.0,100,0.00,,,0.00,Wunderground v.1.15,2013-07-10 09:41:00,
2013-07-10 05:46:00,66.5,66.5,30.16,East,87,0.0,0.0,100,0.00,,,0.00,Wunderground v.1.15,2013-07-10 09:46:00,
2013-07-10 05:51:00,66.5,66.5,30.16,East,87,0.0,0.0,100,0.00,,,0.01,Wunderground v.1.15,2013-07-10 09:51:00,
2013-07-10 05:56:00,66.5,66.5,30.16,East,87,0.0,0.0,100,0.00,,,0.01,Wunderground v.1.15,2013-07-10 09:56:00,
2013-07-10 06:01:00,66.6,66.6,30.16,East,87,0.0,0.0,100,0.00,,,0.01,Wunderground v.1.15,2013-07-10 10:01:00,
2013-07-10 06:06:00,66.6,66.6,30.16,East,87,0.0,0.0,100,0.00,,,0.01,Wunderground v.1.15,2013-07-10 10:06:00,
2013-07-10 06:11:00,66.6,66.6,30.16,East,87,0.0,0.0,100,0.00,,,0.01,Wunderground v.1.15,2013-07-10 10:11:00,
2013-07-10 06:16:00,66.6,66.6,30.16,East,87,0.0,0.0,100,0.00,,,0.01,Wunderground v.1.15,2013-07-10 10:16:00,
2013-07-10 06:21:00,66.6,66.6,30.16,East,87,0.0,0.0,100,0.00,,,0.01,Wunderground v.1.15,2013-07-10 10:21:00,
2013-07-10 06:26:00,66.6,66.6,30.16,East,87,0.0,0.0,100,0.00,,,0.01,Wunderground v.1.15,2013-07-10 10:26:00,
2013-07-10 06:31:00,66.6,66.6,30.16,East,87,0.0,0.0,100,0.00,,,0.01,Wunderground v.1.15,2013-07-10 10:31:00,
2013-07-10 06:36:00,66.7,66.7,30.16,East,87,0.0,0.0,100,0.00,,,0.01,Wunderground v.1.15,2013-07-10 10:36:00,
2013-07-10 06:41:00,66.7,66.7,30.16,East,87,0.0,0.0,100,0.00,,,0.01,Wunderground v.1.15,2013-07-10 10:41:00,
2013-07-10 06:46:00,66.9,66.9,30.16,East,87,0.0,0.0,100,0.00,,,0.01,Wunderground v.1.15,2013-07-10 10:46:00,
2013-07-10 06:51:00,66.9,66.9,30.16,East,87,0.0,0.0,100,0.00,,,0.01,Wunderground v.1.15,2013-07-10 10:51:00,
2013-07-10 06:56:00,67.0,67.0,30.16,East,87,0.0,0.0,100,0.00,,,0.01,Wunderground v.1.15,2013-07-10 10:56:00,
2013-07-10 07:01:00,67.2,67.2,30.16,East,87,0.0,0.0,100,0.00,,,0.01,Wunderground v.1.15,2013-07-10 11:01:00,
2013-07-10 07:06:00,67.3,67.3,30.16,East,87,0.0,0.0,100,0.00,,,0.01,Wunderground v.1.15,2013-07-10 11:06:00,
2013-07-10 07:11:00,67.4,67.4,30.16,East,87,0.0,0.0,100,0.00,,,0.01,Wunderground v.1.15,2013-07-10 11:11:00,
2013-07-10 07:16:00,67.5,67.5,30.16,East,87,0.0,0.0,100,0.00,,,0.01,Wunderground v.1.15,2013-07-10 11:16:00,
2013-07-10 07:21:00,67.5,67.5,30.16,East,87,0.0,0.0,100,0.00,,,0.01,Wunderground v.1.15,2013-07-10 11:21:00,
2013-07-10 07:26:00,67.6,67.6,30.16,East,87,0.0,0.0,100,0.00,,,0.01,Wunderground v.1.15,2013-07-10 11:26:00,
2013-07-10 07:31:00,67.6,67.6,30.16,East,87,0.0,0.0,100,0.00,,,0.01,Wunderground v.1.15,2013-07-10 11:31:00,
2013-07-10 07:36:00,67.7,67.7,30.16,East,87,0.0,0.0,100,0.00,,,0.01,Wunderground v.1.15,2013-07-10 11:36:00,
2013-07-10 07:41:00,67.7,67.7,30.16,East,87,0.0,0.0,100,0.00,,,0.01,Wunderground v.1.15,2013-07-10 11:41:00,
2013-07-10 07:46:00,67.8,67.8,30.16,East,87,0.0,1.0,100,0.00,,,0.01,Wunderground v.1.15,2013-07-10 11:46:00,
2013-07-10 07:51:00,67.8,67.8,30.16,East,87,0.0,1.0,100,0.00,,,0.01,Wunderground v.1.15,2013-07-10 11:51:00,
2013-07-10 07:56:00,67.9,67.9,30.16,East,87,0.0,1.0,100,0.00,,,0.01,Wunderground v.1.15,2013-07-10 11:56:00,
2013-07-10 08:01:00,67.9,67.9,30.15,East,87,0.0,0.0,100,0.00,,,0.01,Wunderground v.1.15,2013-07-10 12:01:00,
2013-07-10 08:06:00,68.0,68.0,30.16,East,87,0.0,0.0,100,0.00,,,0.01,Wunderground v.1.15,2013-07-10 12:06:00,
2013-07-10 08:11:00,68.1,68.1,30.16,East,87,0.0,1.0,100,0.00,,,0.01,Wunderground v.1.15,2013-07-10 12:11:00,
2013-07-10 08:16:00,68.1,68.1,30.16,East,87,0.0,1.0,100,0.00,,,0.01,Wunderground v.1.15,2013-07-10 12:16:00,
2013-07-10 08:21:00,68.1,68.1,30.16,East,87,0.0,0.0,100,0.00,,,0.01,Wunderground v.1.15,2013-07-10 12:21:00,
2013-07-10 08:26:00,68.1,68.1,30.16,East,87,0.0,1.0,100,0.00,,,0.01,Wunderground v.1.15,2013-07-10 12:26:00,
2013-07-10 08:31:00,68.2,68.2,30.16,East,87,0.0,0.0,100,0.00,,,0.01,Wunderground v.1.15,2013-07-10 12:31:00,
2013-07-10 08:36:00,68.2,68.2,30.16,East,87,0.0,0.0,100,0.00,,,0.01,Wunderground v.1.15,2013-07-10 12:36:00,
2013-07-10 08:41:00,68.3,68.3,30.16,East,87,0.0,0.0,100,0.00,,,0.01,Wunderground v.1.15,2013-07-10 12:41:00,
2013-07-10 08:46:00,68.3,68.3,30.16,East,87,0.0,0.0,100,0.00,,,0.01,Wunderground v.1.15,2013-07-10 12:46:00,
2013-07-10 08:51:00,68.4,68.4,30.15,East,87,0.0,0.0,100,0.00,,,0.01,Wunderground v.1.15,2013-07-10 12:51:00,
2013-07-10 08:56:00,68.5,68.5,30.16,East,87,0.0,0.0,100,0.00,,,0.01,Wunderground v.1.15,2013-07-10 12:56:00,
2013-07-10 09:01:00,68.6,68.6,30.15,East,87,0.0,0.0,100,0.00,,,0.01,Wunderground v.1.15,2013-07-10 13:01:00,
2013-07-10 09:06:00,68.6,68.6,30.16,East,87,0.0,0.0,100,0.00,,,0.01,Wunderground v.1.15,2013-07-10 13:06:00,
2013-07-10 09:11:00,68.5,68.5,30.15,East,87,0.0,0.0,100,0.00,,,0.01,Wunderground v.1.15,2013-07-10 13:11:00,
2013-07-10 09:16:00,68.6,68.6,30.15,East,87,0.0,0.0,100,0.00,,,0.01,Wunderground v.1.15,2013-07-10 13:16:00,
2013-07-10 09:21:00,68.7,68.7,30.15,East,87,0.0,0.0,100,0.00,,,0.01,Wunderground v.1.15,2013-07-10 13:21:00,
2013-07-10 09:26:00,68.7,68.7,30.15,East,87,0.0,0.0,100,0.00,,,0.01,Wunderground v.1.15,2013-07-10 13:26:00,
2013-07-10 09:31:00,68.7,68.7,30.15,East,87,0.0,0.0,100,0.00,,,0.01,Wunderground v.1.15,2013-07-10 13:31:00,
2013-07-10 09:36:00,68.7,68.7,30.15,East,87,0.0,1.0,100,0.00,,,0.01,Wunderground v.1.15,2013-07-10 13:36:00,
2013-07-10 09:41:00,68.8,68.8,30.15,East,87,0.0,0.0,100,0.00,,,0.01,Wunderground v.1.15,2013-07-10 13:41:00,
2013-07-10 09:46:00,69.0,69.0,30.15,East,87,0.0,0.0,100,0.00,,,0.01,Wunderground v.1.15,2013-07-10 13:46:00,
2013-07-10 09:51:00,69.2,69.2,30.15,East,87,0.0,0.0,100,0.00,,,0.01,Wunderground v.1.15,2013-07-10 13:51:00,
2013-07-10 09:56:00,69.5,69.5,30.15,East,87,0.0,0.0,100,0.00,,,0.01,Wunderground v.1.15,2013-07-10 13:56:00,
2013-07-10 10:01:00,69.8,69.8,30.14,East,87,0.0,0.0,100,0.00,,,0.01,Wunderground v.1.15,2013-07-10 14:01:00,
2013-07-10 10:06:00,70.1,70.1,30.14,East,87,0.0,0.0,100,0.00,,,0.01,Wunderground v.1.15,2013-07-10 14:06:00,
2013-07-10 10:11:00,70.4,70.4,30.14,East,87,0.0,0.0,100,0.00,,,0.01,Wunderground v.1.15,2013-07-10 14:11:00,
2013-07-10 10:16:00,70.8,70.8,30.15,East,87,0.0,0.0,100,0.00,,,0.01,Wunderground v.1.15,2013-07-10 14:16:00,
2013-07-10 10:21:00,71.1,71.1,30.15,East,87,0.0,0.0,100,0.00,,,0.01,Wunderground v.1.15,2013-07-10 14:21:00,
2013-07-10 10:26:00,71.4,71.4,30.15,East,87,0.0,1.0,100,0.00,,,0.01,Wunderground v.1.15,2013-07-10 14:26:00,
2013-07-10 10:31:00,71.8,71.8,30.15,East,87,0.0,0.0,100,0.00,,,0.01,Wunderground v.1.15,2013-07-10 14:31:00,
2013-07-10 10:36:00,72.2,72.2,30.15,East,87,0.0,1.0,100,0.00,,,0.01,Wunderground v.1.15,2013-07-10 14:36:00,
2013-07-10 10:41:00,72.6,72.6,30.15,East,87,0.0,0.0,100,0.00,,,0.01,Wunderground v.1.15,2013-07-10 14:41:00,
2013-07-10 10:46:00,73.0,73.0,30.14,East,87,0.0,1.0,100,0.00,,,0.01,Wunderground v.1.15,2013-07-10 14:46:00,
2013-07-10 10:51:00,73.5,73.5,30.15,East,87,0.0,1.0,100,0.00,,,0.01,Wunderground v.1.15,2013-07-10 14:51:00,
2013-07-10 10:56:00,73.8,73.8,30.15,East,87,0.0,1.0,100,0.00,,,0.01,Wunderground v.1.15,2013-07-10 14:56:00,
2013-07-10 11:01:00,74.3,74.3,30.15,East,87,0.0,1.0,100,0.00,,,0.01,Wunderground v.1.15,2013-07-10 15:01:00,
2013-07-10 11:06:00,74.7,74.7,30.14,East,87,0.0,1.0,100,0.00,,,0.01,Wunderground v.1.15,2013-07-10 15:06:00,
2013-07-10 11:11:00,75.1,74.5,30.14,East,87,0.0,1.0,98,0.00,,,0.01,Wunderground v.1.15,2013-07-10 15:11:00,
2013-07-10 11:16:00,75.5,74.6,30.14,East,87,0.0,1.0,97,0.00,,,0.01,Wunderground v.1.15,2013-07-10 15:16:00,
2013-07-10 11:21:00,75.8,74.6,30.14,East,87,0.0,1.0,96,0.00,,,0.01,Wunderground v.1.15,2013-07-10 15:21:00,
2013-07-10 11:26:00,76.2,75.6,30.14,East,87,0.0,1.0,98,0.00,,,0.01,Wunderground v.1.15,2013-07-10 15:26:00,
2013-07-10 11:31:00,76.7,76.1,30.14,East,87,0.0,1.0,98,0.00,,,0.02,Wunderground v.1.15,2013-07-10 15:31:00,
2013-07-10 11:36:00,77.2,76.0,30.14,NNE,15,0.0,1.0,96,0.00,,,0.02,Wunderground v.1.15,2013-07-10 15:36:00,
2013-07-10 11:41:00,77.5,75.3,30.13,NNE,15,1.0,1.0,93,0.00,,,0.02,Wunderground v.1.15,2013-07-10 15:41:00,
2013-07-10 11:47:00,77.9,75.7,30.13,NNE,15,1.0,1.0,93,0.00,,,0.02,Wunderground v.1.15,2013-07-10 15:47:00,
2013-07-10 11:51:00,78.5,76.0,30.13,NNE,15,1.0,1.0,92,0.00,,,0.02,Wunderground v.1.15,2013-07-10 15:51:00,
2013-07-10 11:56:00,78.9,76.4,30.13,NNE,15,0.0,1.0,92,0.00,,,0.02,Wunderground v.1.15,2013-07-10 15:56:00,
2013-07-10 12:01:00,79.2,76.3,30.13,NNE,15,0.0,1.0,91,0.00,,,0.02,Wunderground v.1.15,2013-07-10 16:01:00,
2013-07-10 12:07:00,79.2,76.3,30.13,NNE,15,0.0,2.0,91,0.00,,,0.02,Wunderground v.1.15,2013-07-10 16:07:00,
2013-07-10 12:12:00,79.3,76.1,30.12,NNE,15,0.0,1.0,90,0.00,,,0.02,Wunderground v.1.15,2013-07-10 16:12:00,
2013-07-10 12:17:00,79.3,75.8,30.12,NNE,15,0.0,1.0,89,0.00,,,0.02,Wunderground v.1.15,2013-07-10 16:17:00,
2013-07-10 12:22:00,79.5,76.0,30.12,NNE,15,0.0,1.0,89,0.00,,,0.02,Wunderground v.1.15,2013-07-10 16:22:00,
2013-07-10 12:27:00,80.0,76.8,30.12,NNE,15,0.0,1.0,90,0.00,,,0.02,Wunderground v.1.15,2013-07-10 16:27:00,
2013-07-10 12:32:00,80.5,75.6,30.12,North,355,0.0,2.0,85,0.00,,,0.02,Wunderground v.1.15,2013-07-10 16:32:00,
2013-07-10 12:37:00,80.9,77.0,30.11,North,355,0.0,2.0,88,0.00,,,0.02,Wunderground v.1.15,2013-07-10 16:37:00,
2013-07-10 12:42:00,81.0,76.4,30.11,North,351,0.0,0.0,86,0.00,,,0.02,Wunderground v.1.15,2013-07-10 16:42:00,
2013-07-10 12:47:00,81.0,76.4,30.11,North,355,0.0,0.0,86,0.00,,,0.02,Wunderground v.1.15,2013-07-10 16:47:00,
2013-07-10 12:52:00,81.2,75.5,30.11,North,355,0.0,0.0,83,0.00,,,0.02,Wunderground v.1.15,2013-07-10 16:52:00,
2013-07-10 12:57:00,81.2,75.9,30.11,North,355,0.0,1.0,84,0.00,,,0.02,Wunderground v.1.15,2013-07-10 16:57:00,
2013-07-10 13:02:00,81.0,76.1,30.11,North,355,0.0,1.0,85,0.00,,,0.02,Wunderground v.1.15,2013-07-10 17:02:00,
2013-07-10 13:07:00,81.2,75.9,30.10,North,351,0.0,1.0,84,0.00,,,0.02,Wunderground v.1.15,2013-07-10 17:07:00,
2013-07-10 13:12:00,81.1,75.8,30.10,West,266,2.0,3.0,84,0.00,,,0.02,Wunderground v.1.15,2013-07-10 17:12:00,
2013-07-10 13:17:00,80.1,74.5,30.10,West,266,1.0,3.0,83,0.00,,,0.02,Wunderground v.1.15,2013-07-10 17:17:00,
2013-07-10 13:22:00,79.4,75.2,30.10,West,266,0.0,1.0,87,0.00,,,0.02,Wunderground v.1.15,2013-07-10 17:22:00,
2013-07-10 13:27:00,79.3,74.7,30.09,West,266,0.0,1.0,86,0.00,,,0.02,Wunderground v.1.15,2013-07-10 17:27:00,
2013-07-10 13:32:00,79.6,75.0,30.09,West,266,0.0,1.0,86,0.00,,,0.02,Wunderground v.1.15,2013-07-10 17:32:00,
2013-07-10 13:37:00,80.0,74.7,30.09,West,266,0.0,1.0,84,0.00,,,0.02,Wunderground v.1.15,2013-07-10 17:37:00,
2013-07-10 13:42:00,80.4,75.8,30.09,West,266,0.0,1.0,86,0.00,,,0.02,Wunderground v.1.15,2013-07-10 17:42:00,
2013-07-10 13:47:00,80.6,73.9,30.09,SW,229,0.0,2.0,80,0.00,,,0.02,Wunderground v.1.15,2013-07-10 17:47:00,
2013-07-10 13:52:00,80.7,75.1,30.09,SW,229,0.0,1.0,83,0.00,,,0.02,Wunderground v.1.15,2013-07-10 17:52:00,
2013-07-10 13:57:00,80.6,73.1,30.09,SW,229,0.0,2.0,78,0.00,,,0.02,Wunderground v.1.15,2013-07-10 17:57:00,
2013-07-10 14:02:00,80.1,72.2,30.09,SW,229,0.0,2.0,77,0.00,,,0.02,Wunderground v.1.15,2013-07-10 18:02:00,
2013-07-10 14:07:00,80.0,73.6,30.09,SW,229,0.0,2.0,81,0.00,,,0.02,Wunderground v.1.15,2013-07-10 18:07:00,
2013-07-10 14:12:00,80.0,72.9,30.09,SW,229,0.0,1.0,79,0.00,,,0.02,Wunderground v.1.15,2013-07-10 18:12:00,
2013-07-10 14:17:00,79.7,73.0,30.08,SW,229,0.0,2.0,80,0.00,,,0.02,Wunderground v.1.15,2013-07-10 18:17:00,
2013-07-10 14:22:00,79.6,73.6,30.08,SW,229,0.0,1.0,82,0.00,,,0.02,Wunderground v.1.15,2013-07-10 18:22:00,
2013-07-10 14:27:00,79.5,73.9,30.08,SW,229,0.0,1.0,83,0.00,,,0.02,Wunderground v.1.15,2013-07-10 18:27:00,
2013-07-10 14:32:00,79.5,73.9,30.08,SW,229,0.0,2.0,83,0.00,,,0.02,Wunderground v.1.15,2013-07-10 18:32:00,
2013-07-10 14:37:00,79.6,73.6,30.08,SW,229,0.0,2.0,82,0.00,,,0.02,Wunderground v.1.15,2013-07-10 18:37:00,
2013-07-10 14:42:00,79.6,74.0,30.07,SW,229,0.0,1.0,83,0.00,,,0.02,Wunderground v.1.15,2013-07-10 18:42:00,
2013-07-10 14:47:00,79.6,73.3,30.07,SW,229,0.0,1.0,81,0.00,,,0.02,Wunderground v.1.15,2013-07-10 18:47:00,
2013-07-10 14:52:00,79.8,73.4,30.07,SW,229,0.0,1.0,81,0.00,,,0.02,Wunderground v.1.15,2013-07-10 18:52:00,
2013-07-10 14:57:00,80.1,74.5,30.07,SW,229,0.0,1.0,83,0.00,,,0.02,Wunderground v.1.15,2013-07-10 18:57:00,
2013-07-10 15:02:00,80.3,74.7,30.07,SW,229,0.0,1.0,83,0.00,,,0.02,Wunderground v.1.15,2013-07-10 19:02:00,
2013-07-10 15:07:00,80.4,74.4,30.07,SW,229,1.0,1.0,82,0.00,,,0.02,Wunderground v.1.15,2013-07-10 19:07:00,
2013-07-10 15:12:00,80.4,74.4,30.06,SW,229,0.0,0.0,82,0.00,,,0.02,Wunderground v.1.15,2013-07-10 19:12:00,
2013-07-10 15:17:00,80.5,74.9,30.06,SW,229,0.0,1.0,83,0.00,,,0.02,Wunderground v.1.15,2013-07-10 19:17:00,
2013-07-10 15:22:00,80.7,74.3,30.06,SW,229,0.0,2.0,81,0.00,,,0.02,Wunderground v.1.15,2013-07-10 19:22:00,
2013-07-10 15:27:00,80.9,74.5,30.06,SW,229,0.0,2.0,81,0.00,,,0.02,Wunderground v.1.15,2013-07-10 19:27:00,
2013-07-10 15:32:00,81.0,75.0,30.05,SW,229,0.0,1.0,82,0.00,,,0.02,Wunderground v.1.15,2013-07-10 19:32:00,
2013-07-10 15:37:00,81.1,75.1,30.05,SW,229,0.0,1.0,82,0.00,,,0.02,Wunderground v.1.15,2013-07-10 19:37:00,
2013-07-10 15:42:00,81.1,75.1,30.05,SW,229,0.0,1.0,82,0.00,,,0.02,Wunderground v.1.15,2013-07-10 19:42:00,
2013-07-10 15:47:00,81.3,75.3,30.05,SW,229,0.0,2.0,82,0.00,,,0.02,Wunderground v.1.15,2013-07-10 19:47:00,
2013-07-10 15:52:00,81.4,75.7,30.05,SW,229,0.0,0.0,83,0.00,,,0.02,Wunderground v.1.15,2013-07-10 19:52:00,
2013-07-10 15:57:00,81.1,75.1,30.05,SW,229,0.0,0.0,82,0.00,,,0.02,Wunderground v.1.15,2013-07-10 19:57:00,
2013-07-10 16:02:00,80.7,74.7,30.04,SW,229,0.0,0.0,82,0.00,,,0.02,Wunderground v.1.15,2013-07-10 20:02:00,
2013-07-10 16:07:00,80.3,75.0,30.05,SW,229,0.0,0.0,84,0.00,,,0.02,Wunderground v.1.15,2013-07-10 20:07:00,
2013-07-10 16:12:00,80.0,74.4,30.04,SW,229,0.0,0.0,83,0.00,,,0.02,Wunderground v.1.15,2013-07-10 20:12:00,
2013-07-10 16:17:00,79.7,74.4,30.04,SW,229,0.0,0.0,84,0.00,,,0.02,Wunderground v.1.15,2013-07-10 20:17:00,
2013-07-10 16:22:00,79.4,74.1,30.04,SW,229,0.0,0.0,84,0.00,,,0.02,Wunderground v.1.15,2013-07-10 20:22:00,
2013-07-10 16:27:00,79.1,74.2,30.05,SW,229,0.0,0.0,85,0.00,,,0.02,Wunderground v.1.15,2013-07-10 20:27:00,
2013-07-10 16:32:00,79.1,74.5,30.05,SW,229,0.0,0.0,86,0.00,,,0.02,Wunderground v.1.15,2013-07-10 20:32:00,
2013-07-10 16:37:00,79.0,74.5,30.04,SW,229,0.0,0.0,86,0.00,,,0.02,Wunderground v.1.15,2013-07-10 20:37:00,
2013-07-10 16:42:00,79.1,74.9,30.04,SW,229,0.0,0.0,87,0.00,,,0.02,Wunderground v.1.15,2013-07-10 20:42:00,
2013-07-10 16:47:00,79.1,75.2,30.04,SW,225,1.0,3.0,88,0.00,,,0.02,Wunderground v.1.15,2013-07-10 20:47:00,
2013-07-10 16:52:00,79.1,75.6,30.04,SSW,192,0.0,1.0,89,0.00,,,0.02,Wunderground v.1.15,2013-07-10 20:52:00,
2013-07-10 16:57:00,79.1,75.6,30.03,SSW,192,0.0,1.0,89,0.00,,,0.02,Wunderground v.1.15,2013-07-10 20:57:00,
2013-07-10 17:02:00,79.0,75.8,30.04,SSW,192,0.0,0.0,90,0.00,,,0.02,Wunderground v.1.15,2013-07-10 21:02:00,
2013-07-10 17:07:00,78.7,75.8,30.04,SSW,192,0.0,0.0,91,0.00,,,0.02,Wunderground v.1.15,2013-07-10 21:07:00,
2013-07-10 17:12:00,78.5,76.3,30.04,SSW,192,0.0,0.0,93,0.00,,,0.02,Wunderground v.1.15,2013-07-10 21:12:00,
2013-07-10 17:17:00,77.9,75.4,30.04,SSW,192,0.0,0.0,92,0.00,,,0.02,Wunderground v.1.15,2013-07-10 21:17:00,
2013-07-10 17:22:00,77.4,74.2,30.04,SSW,192,0.0,0.0,90,0.00,,,0.02,Wunderground v.1.15,2013-07-10 21:22:00,
2013-07-10 17:27:00,76.9,74.1,30.04,SSW,192,0.0,1.0,91,0.00,,,0.02,Wunderground v.1.15,2013-07-10 21:27:00,
2013-07-10 17:32:00,76.3,73.1,30.05,SSE,159,0.0,2.0,90,0.00,,,0.02,Wunderground v.1.15,2013-07-10 21:32:00,
2013-07-10 17:37:00,75.7,73.2,30.07,SSE,159,0.0,2.0,92,0.00,,,0.02,Wunderground v.1.15,2013-07-10 21:37:00,
2013-07-10 17:42:00,74.9,72.4,30.06,SSE,153,0.0,2.0,92,0.00,,,0.02,Wunderground v.1.15,2013-07-10 21:42:00,
2013-07-10 17:47:00,73.6,71.8,30.06,South,181,0.0,2.0,94,0.00,,,0.02,Wunderground v.1.15,2013-07-10 21:47:00,
2013-07-10 17:52:00,72.4,70.9,30.06,South,177,0.0,3.0,95,0.00,,,0.02,Wunderground v.1.15,2013-07-10 21:52:00,
2013-07-10 17:57:00,71.3,70.1,30.06,South,177,0.0,3.0,96,0.00,,,0.02,Wunderground v.1.15,2013-07-10 21:57:00,
2013-07-10 18:02:00,70.7,69.8,30.06,South,177,0.0,0.0,97,0.00,,,0.02,Wunderground v.1.15,2013-07-10 22:02:00,
2013-07-10 18:07:00,70.4,69.8,30.06,South,177,0.0,0.0,98,0.00,,,0.02,Wunderground v.1.15,2013-07-10 22:07:00,
2013-07-10 18:12:00,70.1,69.8,30.06,South,177,0.0,1.0,99,0.00,,,0.02,Wunderground v.1.15,2013-07-10 22:12:00,
2013-07-10 18:17:00,69.9,69.6,30.06,South,177,0.0,1.0,99,0.00,,,0.02,Wunderground v.1.15,2013-07-10 22:17:00,
2013-07-10 18:22:00,69.5,69.2,30.06,South,177,0.0,1.0,99,0.00,,,0.02,Wunderground v.1.15,2013-07-10 22:22:00,
2013-07-10 18:27:00,69.2,69.2,30.06,South,177,0.0,1.0,100,0.00,,,0.02,Wunderground v.1.15,2013-07-10 22:27:00,
2013-07-10 18:32:00,69.1,69.1,30.06,South,177,0.0,0.0,100,0.00,,,0.02,Wunderground v.1.15,2013-07-10 22:32:00,
2013-07-10 18:37:00,69.0,69.0,30.06,South,177,0.0,0.0,100,0.00,,,0.02,Wunderground v.1.15,2013-07-10 22:37:00,
2013-07-10 18:42:00,69.0,69.0,30.07,South,177,0.0,0.0,100,0.00,,,0.02,Wunderground v.1.15,2013-07-10 22:42:00,
2013-07-10 18:47:00,69.1,69.1,30.07,South,177,0.0,0.0,100,0.00,,,0.02,Wunderground v.1.15,2013-07-10 22:47:00,
2013-07-10 18:52:00,69.1,69.1,30.07,South,177,0.0,1.0,100,0.00,,,0.02,Wunderground v.1.15,2013-07-10 22:52:00,
2013-07-10 18:57:00,69.1,69.1,30.07,South,177,0.0,1.0,100,0.00,,,0.02,Wunderground v.1.15,2013-07-10 22:57:00,
2013-07-10 19:02:00,69.2,69.2,30.07,South,177,0.0,0.0,100,0.00,,,0.02,Wunderground v.1.15,2013-07-10 23:02:00,
2013-07-10 19:07:00,69.2,69.2,30.07,South,177,0.0,0.0,100,0.00,,,0.02,Wunderground v.1.15,2013-07-10 23:07:00,
2013-07-10 19:12:00,69.2,69.2,30.07,South,177,0.0,0.0,100,0.00,,,0.02,Wunderground v.1.15,2013-07-10 23:12:00,
2013-07-10 19:17:00,69.2,69.2,30.06,South,177,0.0,0.0,100,0.00,,,0.02,Wunderground v.1.15,2013-07-10 23:17:00,
2013-07-10 19:22:00,69.2,69.2,30.06,South,177,0.0,0.0,100,0.00,,,0.02,Wunderground v.1.15,2013-07-10 23:22:00,
2013-07-10 19:27:00,69.2,69.2,30.06,South,177,0.0,0.0,100,0.00,,,0.03,Wunderground v.1.15,2013-07-10 23:27:00,
2013-07-10 19:32:00,69.3,69.3,30.06,South,177,0.0,0.0,100,0.00,,,0.03,Wunderground v.1.15,2013-07-10 23:32:00,
2013-07-10 19:37:00,69.3,69.3,30.07,South,177,0.0,0.0,100,0.00,,,0.03,Wunderground v.1.15,2013-07-10 23:37:00,
2013-07-10 19:42:00,69.3,69.3,30.07,South,177,0.0,0.0,100,0.00,,,0.03,Wunderground v.1.15,2013-07-10 23:42:00,
2013-07-10 19:47:00,69.4,69.4,30.08,South,177,0.0,0.0,100,0.00,,,0.03,Wunderground v.1.15,2013-07-10 23:47:00,
2013-07-10 19:52:00,69.4,69.4,30.09,South,177,0.0,1.0,100,0.00,,,0.03,Wunderground v.1.15,2013-07-10 23:52:00,
2013-07-10 19:57:00,69.3,69.3,30.10,South,177,0.0,1.0,100,0.00,,,0.03,Wunderground v.1.15,2013-07-10 23:57:00,
2013-07-10 20:02:00,69.3,69.3,30.09,South,177,0.0,0.0,100,0.00,,,0.03,Wunderground v.1.15,2013-07-11 00:02:00,
2013-07-10 20:07:00,69.2,69.2,30.09,South,177,0.0,0.0,100,0.00,,,0.03,Wunderground v.1.15,2013-07-11 00:07:00,
2013-07-10 20:12:00,69.2,69.2,30.10,South,177,0.0,0.0,100,0.00,,,0.03,Wunderground v.1.15,2013-07-11 00:12:00,
2013-07-10 20:17:00,69.0,69.0,30.10,SSW,212,0.0,2.0,100,0.00,,,0.03,Wunderground v.1.15,2013-07-11 00:17:00,
2013-07-10 20:22:00,68.5,68.5,30.10,SSW,212,0.0,2.0,100,0.00,,,0.03,Wunderground v.1.15,2013-07-11 00:22:00,
2013-07-10 20:27:00,68.2,68.2,30.09,SSW,212,0.0,2.0,100,0.00,,,0.03,Wunderground v.1.15,2013-07-11 00:27:00,
2013-07-10 20:32:00,68.0,68.0,30.09,SSW,212,0.0,1.0,100,0.00,,,0.03,Wunderground v.1.15,2013-07-11 00:32:00,
2013-07-10 20:37:00,67.8,67.8,30.09,West,280,0.0,1.0,100,0.00,,,0.03,Wunderground v.1.15,2013-07-11 00:37:00,
2013-07-10 20:42:00,67.7,67.7,30.08,West,280,0.0,0.0,100,0.00,,,0.03,Wunderground v.1.15,2013-07-11 00:42:00,
2013-07-10 20:47:00,67.8,67.8,30.08,West,280,0.0,1.0,100,0.00,,,0.03,Wunderground v.1.15,2013-07-11 00:47:00,
2013-07-10 20:52:00,67.8,67.8,30.08,West,280,0.0,0.0,100,0.00,,,0.03,Wunderground v.1.15,2013-07-11 00:52:00,
2013-07-10 20:57:00,67.8,67.8,30.07,West,280,0.0,0.0,100,0.00,,,0.03,Wunderground v.1.15,2013-07-11 00:57:00,
2013-07-10 21:02:00,67.8,67.8,30.08,West,280,0.0,0.0,100,0.00,,,0.03,Wunderground v.1.15,2013-07-11 01:02:00,
2013-07-10 21:07:00,67.8,67.8,30.08,West,280,0.0,0.0,100,0.00,,,0.03,Wunderground v.1.15,2013-07-11 01:07:00,
2013-07-10 21:12:00,67.8,67.8,30.07,West,280,0.0,0.0,100,0.00,,,0.03,Wunderground v.1.15,2013-07-11 01:12:00,
2013-07-10 21:17:00,67.8,67.8,30.07,West,280,0.0,0.0,100,0.00,,,0.03,Wunderground v.1.15,2013-07-11 01:17:00,
2013-07-10 21:22:00,67.7,67.7,30.07,West,280,0.0,0.0,100,0.00,,,0.03,Wunderground v.1.15,2013-07-11 01:22:00,
2013-07-10 21:27:00,67.7,67.7,30.07,West,280,0.0,0.0,100,0.00,,,0.03,Wunderground v.1.15,2013-07-11 01:27:00,
2013-07-10 21:32:00,67.6,67.6,30.06,West,280,0.0,0.0,100,0.00,,,0.03,Wunderground v.1.15,2013-07-11 01:32:00,
2013-07-10 21:37:00,67.5,67.5,30.06,West,280,0.0,0.0,100,0.00,,,0.03,Wunderground v.1.15,2013-07-11 01:37:00,
2013-07-10 21:42:00,67.5,67.5,30.07,West,280,0.0,0.0,100,0.00,,,0.03,Wunderground v.1.15,2013-07-11 01:42:00,
2013-07-10 21:47:00,67.5,67.5,30.06,West,280,0.0,0.0,100,0.00,,,0.03,Wunderground v.1.15,2013-07-11 01:47:00,
2013-07-10 21:52:00,67.4,67.4,30.06,West,280,0.0,0.0,100,0.00,,,0.03,Wunderground v.1.15,2013-07-11 01:52:00,
2013-07-10 21:57:00,67.5,67.5,30.06,West,280,0.0,0.0,100,0.00,,,0.03,Wunderground v.1.15,2013-07-11 01:57:00,
2013-07-10 22:02:00,67.5,67.5,30.07,West,280,0.0,0.0,100,0.00,,,0.03,Wunderground v.1.15,2013-07-11 02:02:00,
2013-07-10 22:07:00,67.4,67.4,30.07,West,280,0.0,0.0,100,0.00,,,0.03,Wunderground v.1.15,2013-07-11 02:07:00,
2013-07-10 22:12:00,67.3,67.3,30.07,West,280,0.0,0.0,100,0.00,,,0.03,Wunderground v.1.15,2013-07-11 02:12:00,
2013-07-10 22:17:00,67.2,67.2,30.08,West,280,0.0,0.0,100,0.00,,,0.03,Wunderground v.1.15,2013-07-11 02:17:00,
2013-07-10 22:22:00,67.1,67.1,30.08,West,280,0.0,0.0,100,0.00,,,0.03,Wunderground v.1.15,2013-07-11 02:22:00,
2013-07-10 22:27:00,67.1,67.1,30.08,West,280,0.0,0.0,100,0.00,,,0.03,Wunderground v.1.15,2013-07-11 02:27:00,
2013-07-10 22:32:00,67.1,67.1,30.08,West,280,0.0,0.0,100,0.00,,,0.03,Wunderground v.1.15,2013-07-11 02:32:00,
2013-07-10 22:37:00,67.1,67.1,30.08,West,280,0.0,0.0,100,0.00,,,0.03,Wunderground v.1.15,2013-07-11 02:37:00,
2013-07-10 22:42:00,67.1,67.1,30.08,West,280,0.0,0.0,100,0.00,,,0.03,Wunderground v.1.15,2013-07-11 02:42:00,
2013-07-10 22:47:00,67.1,67.1,30.07,West,280,0.0,0.0,100,0.00,,,0.03,Wunderground v.1.15,2013-07-11 02:47:00,
2013-07-10 22:52:00,67.0,67.0,30.07,West,280,0.0,0.0,100,0.00,,,0.03,Wunderground v.1.15,2013-07-11 02:52:00,
2013-07-10 22:57:00,67.0,67.0,30.07,West,280,0.0,0.0,100,0.00,,,0.03,Wunderground v.1.15,2013-07-11 02:57:00,
2013-07-10 23:02:00,67.0,67.0,30.08,West,280,0.0,0.0,100,0.00,,,0.03,Wunderground v.1.15,2013-07-11 03:02:00,
2013-07-10 23:07:00,67.0,67.0,30.08,West,280,0.0,1.0,100,0.00,,,0.03,Wunderground v.1.15,2013-07-11 03:07:00,
2013-07-10 23:12:00,67.0,67.0,30.07,West,280,0.0,0.0,100,0.00,,,0.03,Wunderground v.1.15,2013-07-11 03:12:00,
2013-07-10 23:17:00,67.0,67.0,30.07,West,280,0.0,0.0,100,0.00,,,0.03,Wunderground v.1.15,2013-07-11 03:17:00,
2013-07-10 23:22:00,66.9,66.9,30.07,West,280,0.0,0.0,100,0.00,,,0.03,Wunderground v.1.15,2013-07-11 03:22:00,
2013-07-10 23:27:00,66.7,66.7,30.07,West,280,0.0,1.0,100,0.00,,,0.03,Wunderground v.1.15,2013-07-11 03:27:00,
2013-07-10 23:32:00,66.6,66.6,30.07,West,280,0.0,0.0,100,0.00,,,0.03,Wunderground v.1.15,2013-07-11 03:32:00,
2013-07-10 23:37:00,66.5,66.5,30.07,West,280,0.0,0.0,100,0.00,,,0.03,Wunderground v.1.15,2013-07-11 03:37:00,
2013-07-10 23:42:00,66.4,66.4,30.07,West,280,0.0,0.0,100,0.00,,,0.03,Wunderground v.1.15,2013-07-11 03:42:00,
2013-07-10 23:47:00,66.4,66.4,30.06,West,280,0.0,0.0,100,0.00,,,0.03,Wunderground v.1.15,2013-07-11 03:47:00,
2013-07-10 23:52:00,66.4,66.4,30.05,West,280,0.0,0.0,100,0.00,,,0.03,Wunderground v.1.15,2013-07-11 03:52:00,
2013-07-10 23:57:00,66.3,66.3,30.06,West,280,0.0,0.0,100,0.00,,,0.03,Wunderground v.1.15,2013-07-11 03:57:00,